Location: Mitty Observatory
(35.9148°N, 88.8847°W)
Time: 04:47:49
(UTC-06:00)

LightSail 2 - Pass Details

Date: 28 January 2021
Orbit: 688 x 705 km, 24.0° (Epoch: 09 March)

Event Time Altitude Azimuth Distance (km) Brightness Sun altitude
Exits shadow 05:42:53 10° 229° (SW) 2,133 7.3 -15.5°
Reaches altitude 10° 05:42:54 10° 229° (SW) 2,126 7.3 -15.5°
Maximum altitude 05:46:35 20° 181° (S) 1,538 7.0 -14.8°
Drops below altitude 10° 05:50:14 10° 134° (SE) 2,121 8.5 -14.1°
Sets 05:53:10 0° 118° (ESE) 3,036 10.0 -13.5°
